| Date | Temp | Humidity | Rainfall | Dew Point | Wind Direction | Wind Speed | Wind Pressure | Condition | Visibility |
|---|---|---|---|---|---|---|---|---|---|
| 2025-05-16 09:00:58 | 27 | 89 | 0.0 | 25 | 040 | 5.7 | 1011 | Shower Day | 09 km |
| 2025-05-16 07:59:47 | 26 | 92 | 25 | 140 | 5.7 | 1011 | Showers | 10 KM | |
| 2025-05-16 06:58:34 | 26 | 92 | 25 | 100 | 1.9 | 1010 | Showers | 10 KM | |
| 2025-05-16 05:58:54 | 26 | 93 | 25 | 150 | 3.8 | 1010 | Partly Cloudy (Day) | 10 KM | |
| 2025-05-16 04:58:59 | 26 | 93 | 25 | 130 | 1.9 | 1009 | Night Thunderstorm | 10 KM | |
| 2025-05-16 04:00:53 | 26 | 93 | 25 | 220 | 3.8 | 1009 | Night Thunderstorm | 10 KM | |
| 2025-05-16 03:00:30 | 26 | 93 | 25 | 240 | 5.7 | 1009 | Lightning | 10 KM | |
| 2025-05-16 01:58:22 | 26 | 93 | 0.0 | 24 | 250 | 4.0 | 1010 | Night Thunderstorm | 10 KM |
| 2025-05-16 00:57:01 | 26 | 92 | 0.0 | 24 | 190 | 4.0 | 1010 | Night Thunderstorm | 10 KM |
| 2025-05-15 23:59:20 | 26 | 92 | 0.0 | 24 | 170 | 5.0 | 1011 | Night Thunderstorm | 10 KM |
| 2025-05-15 22:59:17 | 26 | 91 | 0.0 | 24 | 140 | 1.0 | 1011 | Night Thunderstorm | 10 KM |
| 2025-05-15 21:58:11 | 26 | 90 | 0.0 | 24 | 170 | 3.0 | 1010 | Night Thunderstorm | 10 KM |
| 2025-05-15 20:59:35 | 26 | 87 | 0.0 | 24 | 200 | 5.7 | 1009 | Night Thunderstorm | 10 km |
| 2025-05-15 19:59:48 | 26 | 88 | 0.0 | 24 | 160 | 7.6 | 1009 | Partly Cloudy (Night) | 10 km |
| 2025-05-15 19:01:48 | 27 | 85 | 0.0 | 24 | 180 | 7.6 | 1009 | Partly Cloudy (Night) | 10 km |
| 2025-05-15 18:01:45 | 27 | 88 | 0.0 | 24 | 160 | 7.6 | 1008 | Partly Cloudy (Night) | 10 km |
| 2025-05-15 17:05:27 | 27 | 81 | 0.0 | 24 | 180 | 13.3 | 1008 | Thunderstorm | 10 km |
| 2025-05-15 16:02:12 | 31 | 72 | 0.0 | 25 | 290 | 13.3 | 1008 | Thunderstorm | 10 km |
| 2025-05-15 15:02:18 | 31 | 71 | 0.0 | 25 | 300 | 19.0 | 1008 | Thunderstorm | 15 km |
| 2025-05-15 14:03:03 | 32 | 67 | 0.0 | 25 | 310 | 17.1 | 1008 | Distant showers | 15 km |
| 2025-05-15 12:58:26 | 32 | 66 | 0 | 25 | 320 | 17.1 | 1009 | Distant showers | 15KM |
| 2025-05-15 10:59:49 | 31 | 69 | 0 | 25 | 330 | 11.4 | 1010 | Partly Cloudy (Day) | 20 KM |
| 2025-05-15 09:58:24 | 32 | 64 | 0.0 | 24 | 220 | 3.0 | 1010 | Partly Cloudy (Day) | 20 KM |
| 2025-05-15 09:00:07 | 30 | 72 | 0.0 | 24 | 210 | 4.0 | 1010 | Partly Cloudy (Day) | 20 KM |
| 2025-05-15 08:01:28 | 27 | 80 | 24 | 220 | 5.7 | 1010 | Partly Cloudy (Day) | 20 KM |